Salamanca, Spain

4:11 AM CET on December 13, 2017 (GMT +0100)
Matacan

Weather History for LESA - August, 2013

Change the Weather History Date:

Friday, August 30, 2013

  Actual Average Record
Temperature  
Mean Temperature 65 °F -  
Max Temperature 82 °F - - ()
Min Temperature 48 °F - - ()
Growing Degree Days 15 (Base 50)    
Moisture  
Dew Point 49 °F    
Average Humidity 63    
Maximum Humidity 100    
Minimum Humidity 15    
Precipitation  
Precipitation 0.00 in 0.04 in - ()
Sea Level Pressure  
Sea Level Pressure 30.19 in    
Wind  
Wind Speed 3 mph ()    
Max Wind Speed 9 mph    
Max Gust Speed 15 mph    
Visibility 6.7 miles    
Events      
T = Trace of Precipitation, MM = Missing Value Source: Averaged Metar Reports

Daily Weather History Graph

Daily Weather History Graph

Search for Another Location

Airport or City:

Trip Planner

Search our weather history database for the weather conditions in past years. The results will help you decide how hot, cold, wet, or windy it might be!

Date:

Astronomy

Aug. 30, 2013 Rise Set
Actual Time 7:46 AM CEST 8:57 PM CEST
Civil Twilight 7:18 AM CEST 9:25 PM CEST
Nautical Twilight 6:44 AM CEST 9:59 PM CEST
Astronomical Twilight 6:08 AM CEST 10:35 PM CEST
Moon 2:12 AM CEST (8/30) 5:04 PM CEST (8/30)
Length of Visible Light 14h 07m
Length of Day
13h 10m
Waning Crescent, 31% of the Moon is Illuminated
Aug 30
Waning Crescent
Sep 5
New
Sep 12
First Quarter
Sep 19
Full
Sep 27
Last Quarter

Hourly Weather History & Observations

Time (CEST) Temp. Dew Point Humidity Pressure Visibility Wind Dir Wind Speed Gust Speed Precip Events Conditions
12:00 AM 64.4 °F 48.2 °F 56% 30.18 in - ENE 9.2 mph - N/A   Clear
12:30 AM 62.6 °F 50.0 °F 63% 30.18 in - ENE 6.9 mph - N/A   Clear
1:00 AM 60.8 °F 50.0 °F 68% 30.18 in - ENE 6.9 mph - N/A   Clear
1:30 AM 59.0 °F 50.0 °F 72% 30.18 in - NE 5.8 mph - N/A   Clear
2:00 AM 59 °F 49 °F 62%  in 9 mi NE 4.6 mph - -   Clear
2:00 AM 59.0 °F 50.0 °F 72% 30.18 in - ENE 4.6 mph - N/A   Clear
2:30 AM 57.2 °F 50.0 °F 77% 30.18 in - NE 3.5 mph - N/A   Clear
3:00 AM 57.2 °F 50.0 °F 77% 30.18 in - Variable 1.2 mph - N/A   Clear
3:30 AM 55.4 °F 50.0 °F 82% 30.18 in - NNE 6.9 mph - N/A   Clear
4:00 AM 55.4 °F 50.0 °F 82% 30.18 in - NNE 4.6 mph - N/A   Clear
4:30 AM 53.6 °F 50.0 °F 88% 30.18 in - Variable 2.3 mph - N/A   Clear
5:00 AM 53.6 °F 50.0 °F 88% 30.18 in - NNE 6.9 mph - N/A   Clear
5:30 AM 51.8 °F 50.0 °F 94% 30.18 in - Variable 1.2 mph - N/A   Clear
6:00 AM 51.8 °F 50.0 °F 94% 30.18 in - Variable 1.2 mph - N/A   Clear
6:30 AM 51.8 °F 48.2 °F 88% 30.18 in - North 3.5 mph - N/A   Clear
7:00 AM 51.8 °F 48.2 °F 88% 30.18 in - Calm Calm - N/A   Clear
7:30 AM 50.0 °F 48.2 °F 94% 30.18 in 5.0 mi Calm Calm - N/A   Unknown
8:00 AM 48.2 °F 48.2 °F 100% 30.18 in 3.1 mi Calm Calm - N/A   Mist
8:30 AM 48.2 °F 48.2 °F 100% 30.21 in 3.1 mi Calm Calm - N/A   Mist
9:00 AM 51.8 °F 50.0 °F 94% 30.21 in 4.3 mi Variable 1.2 mph - N/A   Unknown
9:30 AM 55.4 °F 51.8 °F 88% 30.21 in 5.0 mi Calm Calm - N/A   Unknown
10:00 AM 55.4 °F 51.8 °F 88% 30.21 in - Calm Calm - N/A   Clear
10:30 AM 59.0 °F 53.6 °F 82% 30.21 in - Calm Calm - N/A   Clear
11:00 AM 60.8 °F 53.6 °F 77% 30.21 in - Calm Calm - N/A   Clear
11:30 AM 62.6 °F 53.6 °F 72% 30.21 in - Calm Calm - N/A   Clear
12:00 PM 66.2 °F 53.6 °F 64% 30.21 in - Variable 2.3 mph - N/A   Clear
12:30 PM 68.0 °F 53.6 °F 60% 30.21 in - North 4.6 mph - N/A   Clear
1:00 PM 69.8 °F 51.8 °F 53% 30.21 in - Variable 3.5 mph - N/A   Clear
1:30 PM 71.6 °F 51.8 °F 50% 30.21 in - Variable 4.6 mph - N/A   Clear
2:00 PM 76 °F 50 °F 29%  in 12 mi North 3.5 mph - -   Clear
2:00 PM 73.4 °F 51.8 °F 47% 30.21 in - Variable 2.3 mph - N/A   Clear
2:30 PM 75.2 °F 50.0 °F 41% 30.21 in - Variable 3.5 mph - N/A   Clear
3:00 PM 75.2 °F 48.2 °F 38% 30.18 in - NNW 4.6 mph - N/A   Clear
3:30 PM 77.0 °F 46.4 °F 34% 30.18 in - Variable 2.3 mph - N/A   Clear
4:00 PM 77.0 °F 42.8 °F 29% 30.18 in - Variable 2.3 mph - N/A   Clear
4:30 PM 77.0 °F 42.8 °F 29% 30.18 in - Variable 2.3 mph - N/A   Clear
5:00 PM 78.8 °F 41.0 °F 26% 30.18 in - Variable 1.2 mph - N/A   Clear
5:30 PM 78.8 °F 44.6 °F 30% 30.18 in - Variable 3.5 mph 15.0 mph N/A   Clear
6:00 PM 80.6 °F 44.6 °F 28% 30.18 in - SE 3.5 mph - N/A   Clear
6:30 PM 78.8 °F 41.0 °F 26% 30.18 in - Variable 1.2 mph - N/A   Clear
7:00 PM 78.8 °F 42.8 °F 28% 30.18 in - Variable 2.3 mph - N/A   Clear
7:30 PM 78.8 °F 39.2 °F 24% 30.18 in - Variable 2.3 mph - N/A   Clear
8:00 PM 80 °F 41 °F 15%  in 12 mi Calm Calm - -   Clear
8:00 PM 77.0 °F 41.0 °F 28% 30.18 in - Variable 1.2 mph - N/A   Clear
8:30 PM 77.0 °F 50.0 °F 39% 30.18 in - Calm Calm - N/A   Clear
9:00 PM 69.8 °F 55.4 °F 60% 30.18 in - Calm Calm - N/A   Clear
9:30 PM 62.6 °F 55.4 °F 77% 30.18 in - Variable 1.2 mph - N/A   Clear
10:00 PM 62.6 °F 55.4 °F 77% 30.21 in - Calm Calm - N/A   Clear
10:30 PM 60.8 °F 53.6 °F 77% 30.21 in - Calm Calm - N/A   Clear
11:00 PM 59.0 °F 53.6 °F 82% 30.21 in - Calm Calm - N/A   Clear
11:30 PM 60.8 °F 48.2 °F 63% 30.21 in - NE 3.5 mph - N/A   Clear